Printer-friendly version

IAU Minor Planet Center

Minor Planet Center

MPEC 2008-G05 : 2008 FK7

The following Minor Planet Electronic Circular may be linked-to from your own Web pages, but must not otherwise be redistributed electronically.


Read MPEC 2008-G04 Read MPEC 2008-G06


M.P.E.C. 2008-G05                                Issued 2008 Apr. 1, 14:19 UT

     The Minor Planet Electronic Circulars contain information on unusual
         minor planets and routine data on comets.  They are published
   on behalf of Commission 20 of the International Astronomical Union by the
          Minor Planet Center, Smithsonian Astrophysical Observatory,
                          Cambridge, MA 02138, U.S.A.

             Prepared using the Tamkin Foundation Computer Network

                              MPC@CFA.HARVARD.EDU
          URL http://www.cfa.harvard.edu/iau/mpc.html  ISSN 1523-6714

                                   2008 FK7

Observations:
     K08F07K* C2008 03 31.40145 14 21 43.38 -17 40 29.3          21.7 V EG005G96
     K08F07K  C2008 03 31.40707 14 21 44.02 -17 40 36.6          21.7 V EG005G96
     K08F07K  C2008 03 31.41265 14 21 44.60 -17 40 42.4          21.7 V EG005G96
     K08F07K  C2008 03 31.44716 14 21 48.52 -17 41 21.7          21.7 V EG005G96
     K08F07K  C2008 03 31.45326 14 21 49.20 -17 41 27.9          22.2 V EG005G96
     K08F07K  C2008 03 31.45946 14 21 49.91 -17 41 35.3          21.6 V EG005G96
     K08F07K  C2008 04 01.36655 14 23 45.14 -17 58 59.9          22.0 V EG005291
     K08F07K  C2008 04 01.37043 14 23 45.57 -17 59 04.9          21.9 V EG005291
     K08F07K  C2008 04 01.37437 14 23 46.02 -17 59 09.1          21.9 V EG005291
     K08F07K  C2008 04 01.40145 14 23 49.08 -17 59 40.4          21.9 V EG005G96
     K08F07K  C2008 04 01.40633 14 23 49.63 -17 59 47.3          21.8 V EG005G96
     K08F07K  C2008 04 01.41121 14 23 50.15 -17 59 52.1          21.1 V EG005G96
     K08F07K  C2008 04 01.41606 14 23 50.71 -17 59 56.8          21.0 V EG005G96

Observer details:
291 LPL/Spacewatch II.  Observer T. H. Bressi.  1.8-m f/2.7 reflector + CCD.
G96 Mt. Lemmon Survey.  Observer A. Boattini.  Measurers E. C. Beshore,
    A. Boattini, G. J. Garradd, A. R. Gibbs, A. D. Grauer, R. E. Hill,
    R. A. Kowalski, S. M. Larson, R. H. McNaught.  1.5-m reflector + CCD.

Orbital elements:
2008 FK7                                                 Earth MOID = 0.1396 AU
Epoch 2008 May 14.0 TT = JDT 2454600.5                  MPC
M 359.71695              (2000.0)            P               Q
n   0.39011467     Peri.  249.13371     -0.55433684     +0.83227444
a   1.8549884      Node   347.19690     -0.75414498     -0.50505746
e   0.3806833      Incl.    1.41448     -0.35210228     -0.22855246
P   2.53           H   23.2           G   0.15           U   9
Residuals in seconds of arc
080331 G96  0.1+  0.5+    080331 G96  0.0   0.1-    080401 G96  0.2+  1.0-
080331 G96  0.2+  0.4-    080401 291  0.1+  0.2+    080401 G96  0.3-  0.2-
080331 G96  0.4-  0.1+    080401 291  0.1-  0.3-    080401 G96  0.1-  0.6+
080331 G96  0.1+  0.3-    080401 291  0.0   0.1+
080331 G96  0.1-  0.3+    080401 G96  0.3+  0.3+

Ephemeris:
2008 FK7                 a,e,i = 1.85, 0.38, 1                   q = 1.1488
Date    TT    R. A. (2000) Decl.     Delta      r     Elong.  Phase     V
2008 03 25    14 08.91   -15 42.9    0.284    1.250   149.1    24.2    22.1
2008 04 04    14 29.40   -18 50.1    0.236    1.216   153.2    21.8    21.5
2008 04 14    14 53.15   -22 20.5    0.199    1.188   156.3    19.9    21.1
2008 04 24    15 21.62   -26 05.6    0.172    1.167   158.1    18.7    20.7
2008 05 04    15 55.03   -29 39.4    0.154    1.154   159.0    18.3    20.4
2008 05 14    16 31.46   -32 24.1    0.146    1.149   159.6    17.9    20.3
2008 05 24    17 06.91   -33 51.0    0.147    1.152   160.9    16.7    20.2
2008 06 03    17 36.55   -33 59.1    0.155    1.164   163.7    14.1    20.3
2008 06 13    17 58.37   -33 10.3    0.172    1.184   167.8    10.4    20.4
2008 06 23    18 13.50   -31 51.5    0.197    1.211   171.5     7.1    20.6
2008 07 03    18 24.10   -30 23.1    0.230    1.245   170.7     7.6    21.0
2008 07 13    18 32.80   -28 56.6    0.274    1.283   165.2    11.7    21.6
2008 07 23    18 41.45   -27 37.3    0.327    1.326   158.3    16.4    22.3
2008 08 02    18 50.95   -26 26.5    0.392    1.372   151.2    20.8    22.9

Timothy B. Spahr             (C) Copyright 2008 MPC           M.P.E.C. 2008-G05

Read MPEC 2008-G04 Read MPEC 2008-G06


Our Web policy. Index to the CBAT/MPC/ICQ pages.


Valid HTML 4.01!